[[{"header":{"parameterUnit":"m.s-1","parameterCategory":2,"la1":30.2991,"la2":30.254,"lo1":-89.0895,"lo2":-89.0444,"dy":0.0017,"dx":0.0017,"nx":28,"ny":28,"refTime":"2025-06-15T21:00:00:Z","depth":"0","parameterNumber":2,"parameterNumberName":"U-component_of_CURRENTS"},"data":[0,0,0,0,0,0,0,0,0,0,0,0,0,0,0,0,0,0,0,0,0,0,0,0,0,0,0,0,0,0,0,0,0,0,0,0,0,0,0,0,0,0,0,0,0,0,0,0,0,0,0,0,0,0,0,0,0,0,0.2739,0.274,0,0.2824,0.2824,0.2825,0.2833,0.2833,0.2832,0.2832,0.2851,0.2852,0.2853,0,0,0,0,0,0,0,0,0,0,0,0,0,0.2611,0.2613,0.2739,0.274,0.2741,0.2824,0.2824,0.2825,0.2833,0.2833,0.2832,0.2831,0.285,0.2852,0.2853,0,0,0,0,0,0,0,0,0,0,0,0,0,0.2674,0.2613,0.2738,0.2759,0.2762,0.2823,0.2824,0.2825,0.2833,0.2833,0.2832,0.2831,0.285,0.2851,0.2853,0.2877,0,0,0.2857,0.2858,0,0,0,0,0,0,0,0,0.2671,0.2678,0.2754,0.2757,0.2761,0.2821,0.2787,0.2841,0.2834,0.2802,0.2832,0.2831,0.2838,0.284,0.2853,0.2878,0.2879,0.2857,0.2858,0.2859,0.2859,0,0,0,0,0,0,0,0.2666,0.2675,0.2768,0.2756,0.276,0.2773,0.2781,0.2797,0.2818,0.2804,0.2806,0.2823,0.2839,0.2852,0.2853,0.2879,0.2857,0.2859,0.286,0.286,0.2934,0.2935,0,0,0,0,0,0,0.2664,0.2671,0.2765,0.2771,0.2718,0.2776,0.2784,0.2799,0.282,0.2824,0.2823,0.2823,0.2849,0.2852,0.2854,0.2904,0.2859,0.286,0.2861,0.2933,0.2934,0.2935,0,0,0,0,0,0,0.2661,0.2672,0.2762,0.2726,0.2739,0.278,0.2796,0.2801,0.2817,0.2836,0.2837,0.2834,0.2849,0.2852,0.287,0.2904,0.2861,0.2862,0.2931,0.2933,0.2935,0.299,0,0,0,0,0,0,0.2657,0.267,0.2676,0.2726,0.2741,0.28,0.2797,0.2803,0.283,0.283,0.2846,0.2847,0.2849,0.2868,0.2871,0.2905,0.2863,0.293,0.2932,0.2934,0.2987,0.2994,0.2999,0,0,0,0,0,0.2652,0.2668,0.2676,0.2688,0.275,0.2802,0.281,0.2833,0.2832,0.2843,0.2851,0.2846,0.2883,0.287,0.2874,0.2908,0.2929,0.2932,0.2934,0.2984,0.2992,0.2999,0,0,0,0,0,0,0.2611,0.2672,0.2682,0.2713,0.2754,0.2805,0.2822,0.2838,0.2856,0.2853,0.2858,0.286,0.2889,0.2889,0.2873,0.2934,0.2907,0.291,0.2944,0.2951,0.2957,0.2972,0.2865,0,0,0,0,0,0.2607,0.2637,0.2692,0.2716,0.2738,0.2779,0.2802,0.2822,0.2849,0.2857,0.2868,0.2881,0.2905,0.2917,0.293,0.2964,0.3007,0.2989,0.2995,0.3,0.3015,0.3101,0.3117,0.2943,0.2943,0.2943,0,0,0.2598,0.2637,0.2651,0.271,0.2742,0.2786,0.279,0.2831,0.2867,0.2856,0.2893,0.29,0.2916,0.2953,0.2967,0.2957,0.3078,0.3003,0.3008,0.302,0.3105,0.3122,0.3138,0.2945,0.2944,0.2944,0,0,0.2605,0.2629,0.266,0.2698,0.2757,0.279,0.2803,0.2855,0.2874,0.2912,0.2917,0.2944,0.2971,0.3,0.3016,0.3063,0.3103,0.3066,0.3118,0.3201,0.3217,0.3231,0.3337,0.336,0.3075,0.3075,0.3075,0,0.2589,0.2641,0.2675,0.2719,0.2758,0.2793,0.2839,0.287,0.2919,0.2948,0.2926,0.2999,0.2999,0.3075,0.3086,0.308,0.3142,0.3089,0.3212,0.3227,0.324,0.3345,0.337,0.3078,0.3078,0.3077,0.3077,0,0.2629,0.2669,0.2692,0.2762,0.2803,0.2848,0.2903,0.294,0.2962,0.2997,0.3062,0.3072,0.3124,0.3126,0.3118,0.322,0.324,0.3207,0.3197,0.3262,0.3368,0.3393,0.3082,0.3081,0.308,0.308,0,0,0.2604,0.2701,0.2709,0.275,0.2832,0.2872,0.2938,0.3017,0.3083,0.3104,0.3194,0.3211,0.3226,0.3246,0.3252,0.3311,0.3454,0.3303,0.3306,0.3417,0.3677,0.3681,0.3709,0.3451,0.3455,0.3458,0.3723,0,0.2627,0.2708,0.2758,0.2837,0.2885,0.2946,0.3014,0.3084,0.3145,0.3236,0.3261,0.3337,0.3273,0.332,0.3366,0.3433,0.3519,0.3388,0.359,0.3597,0.36,0.3737,0.36,0.3823,0.3748,0.3752,0.3755,0,0.2655,0.271,0.2784,0.2894,0.2922,0.2973,0.3103,0.3173,0.3299,0.3351,0.3427,0.3465,0.3561,0.3494,0.3652,0.3578,0.3639,0.3679,0.3689,0.3691,0.3648,0.3741,0.3871,0.3794,0.3793,0.379,0.3788,0,0.2625,0.2732,0.279,0.2825,0.2947,0.2997,0.3071,0.3199,0.3284,0.3444,0.3528,0.3631,0.3706,0.3785,0.385,0.378,0.4037,0.3951,0.4023,0.4025,0.3947,0.3934,0.4029,0.4091,0.409,0.409,0.4089,0,0.2637,0.2683,0.2778,0.2809,0.2899,0.2989,0.3105,0.3206,0.3365,0.3483,0.3583,0.3707,0.3781,0.3918,0.3954,0.4091,0.4132,0.4084,0.4108,0.3964,0.395,0.3905,0.3851,0.41,0.4097,0.4095,0.4094,0,0.2595,0.2656,0.2726,0.2843,0.2883,0.2946,0.3108,0.3203,0.3361,0.353,0.3594,0.3801,0.3991,0.4085,0.4255,0.4237,0.4263,0.4396,0.4237,0.4236,0.4175,0.4128,0.4093,0.3977,0.4525,0.4527,0.4529,0,0.2583,0.261,0.2722,0.277,0.2821,0.2924,0.3007,0.3175,0.3284,0.3583,0.3666,0.3923,0.4078,0.4355,0.4413,0.455,0.4375,0.4486,0.4302,0.4209,0.4175,0.3953,0.3839,0.424,0.4239,0.4238,0.4237,0,0.2554,0.2583,0.2639,0.2739,0.2817,0.2911,0.3039,0.3116,0.3333,0.3493,0.3736,0.3901,0.4191,0.429,0.4482,0.4521,0.4276,0.4474,0.4414,0.4012,0.3741,0.3628,0.4048,0.4231,0.4232,0.4232,0.4232,0.4233,0.2522,0.255,0.2626,0.2717,0.2802,0.2892,0.2934,0.308,0.324,0.345,0.3679,0.3864,0.4115,0.4368,0.4389,0.4355,0.4274,0.4239,0.4217,0.4021,0.381,0.4238,0.4409,0.441,0.4412,0.4413,0.4414,0,0.2497,0.2539,0.2614,0.2707,0.2764,0.2837,0.2953,0.2977,0.3099,0.3325,0.3513,0.3773,0.3936,0.4079,0.4197,0.4112,0.3857,0.4028,0.3671,0.359,0.4036,0.3922,0.3948,0.3948,0.3948,0.3949,0.3949,0.3949,0.2489,0.2536,0.2578,0.2649,0.2706,0.2736,0.2772,0.2821,0.2936,0.3083,0.321,0.3399,0.3769,0.4055,0.4031,0.392,0.3611,0.3486,0.3463,0.3784,0.3799,0.3813,0.3693,0.3671,0.3671,0.2831,0.2825,0.2821]},{"header":{"parameterUnit":"m.s-1","parameterCategory":2,"la1":30.2991,"la2":30.254,"lo1":-89.0895,"lo2":-89.0444,"dy":0.0017,"dx":0.0017,"nx":28,"ny":28,"refTime":"2025-06-15T21:00:00:Z","depth":"0","parameterNumber":3,"parameterNumberName":"V-component_of_CURRENTS"},"data":[0,0,0,0,0,0,0,0,0,0,0,0,0,0,0,0,0,0,0,0,0,0,0,0,0,0,0,0,0,0,0,0,0,0,0,0,0,0,0,0,0,0,0,0,0,0,0,0,0,0,0,0,0,0,0,0,0,0,0.0066,0.0066,0,0.0025,0.0024,0.0024,-0.0013,-0.0014,-0.0014,-0.0014,-0.0071,-0.0072,-0.0073,0,0,0,0,0,0,0,0,0,0,0,0,0,0.008,0.008,0.0066,0.0066,0.0065,0.0025,0.0024,0.0024,-0.0013,-0.0014,-0.0014,-0.0014,-0.007,-0.0072,-0.0073,0,0,0,0,0,0,0,0,0,0,0,0,0,0.0058,0.008,0.0066,0.0044,0.0041,0.0025,0.0024,0.0023,-0.0013,-0.0014,-0.0014,-0.0014,-0.007,-0.0072,-0.0073,-0.0077,0,0,-0.0079,-0.008,0,0,0,0,0,0,0,0,0.0059,0.0057,0.0047,0.0045,0.0043,0.0012,0.0009,-0.001,-0.0013,0.0005,-0.0014,-0.0014,-0.0043,-0.0047,-0.0056,-0.008,-0.0083,-0.0079,-0.0081,-0.0081,-0.0082,0,0,0,0,0,0,0,0.0061,0.0059,0.0048,0.0047,0.0044,0.0025,0.0021,0.0005,-0.0018,0.0004,0.0001,0.0,-0.0044,-0.0054,-0.0058,-0.0083,-0.0079,-0.0081,-0.0082,-0.0083,-0.0129,-0.0129,0,0,0,0,0,0,0.0072,0.006,0.0049,0.0047,0.0053,0.0025,0.0021,0.0021,-0.0017,-0.0023,0.0001,-0.0001,-0.0051,-0.0056,-0.006,-0.0064,-0.0081,-0.0083,-0.0084,-0.0129,-0.0129,-0.0129,0,0,0,0,0,0,0.0073,0.0072,0.0051,0.0054,0.005,0.0026,0.0025,0.002,0.0012,-0.0019,-0.0026,-0.0002,-0.0051,-0.0057,-0.0075,-0.0067,-0.0084,-0.0086,-0.0129,-0.0129,-0.0129,-0.0074,0,0,0,0,0,0,0.0073,0.0072,0.0075,0.0055,0.0051,0.0048,0.0026,0.002,0.0013,0.001,-0.0023,-0.0029,-0.0052,-0.0072,-0.0077,-0.007,-0.0087,-0.0129,-0.0129,-0.0129,-0.0076,-0.0072,-0.0069,0,0,0,0,0,0.0074,0.0089,0.0075,0.0074,0.0055,0.0049,0.0045,0.0024,0.0013,0.0015,-0.0012,-0.0028,-0.0076,-0.0073,-0.0079,-0.0072,-0.0128,-0.0129,-0.0129,-0.0077,-0.0073,-0.0069,0,0,0,0,0,0,0.0101,0.0086,0.0071,0.008,0.0066,0.0044,0.0046,0.003,0.001,0.0007,-0.0027,-0.0034,-0.0049,-0.0069,-0.0065,-0.0088,-0.0106,-0.0107,-0.0065,-0.0061,-0.0058,-0.0032,-0.0089,0,0,0,0,0,0.0107,0.011,0.0091,0.0097,0.0094,0.0069,0.0064,0.005,0.0031,0.0021,-0.0003,-0.003,-0.0055,-0.0063,-0.0088,-0.0095,-0.011,-0.0097,-0.0094,-0.0091,-0.0075,-0.0095,-0.0091,-0.0129,-0.0129,-0.0129,0,0,0.0119,0.0111,0.0112,0.0102,0.009,0.0095,0.0065,0.0064,0.0065,0.0019,0.0014,-0.002,-0.0056,-0.0069,-0.0076,-0.0082,-0.0089,-0.0091,-0.0088,-0.0073,-0.0095,-0.0091,-0.0087,-0.013,-0.013,-0.013,0,0,0.0152,0.0138,0.0153,0.0145,0.0133,0.0118,0.0121,0.01,0.0087,0.0077,0.004,0.0015,-0.0017,-0.0042,-0.0058,-0.0051,-0.0075,-0.0063,-0.0019,-0.004,-0.0036,-0.0033,-0.0049,-0.0048,-0.0057,-0.0057,-0.0057,0,0.0167,0.0183,0.0157,0.0171,0.0173,0.0133,0.0153,0.0135,0.0109,0.0106,0.0084,0.004,-0.0002,-0.0009,-0.0018,-0.0041,-0.0055,-0.0029,-0.0033,-0.0031,-0.0029,-0.0046,-0.0045,-0.0055,-0.0055,-0.0055,-0.0055,0,0.0213,0.0222,0.0233,0.0234,0.0231,0.0242,0.0217,0.0206,0.0184,0.0167,0.0154,0.0102,0.0081,0.0054,0.0016,0.0011,-0.0004,-0.0029,-0.0037,-0.0021,-0.0041,-0.0041,-0.0051,-0.0052,-0.0053,-0.0053,0,0,0.0256,0.0265,0.0268,0.0279,0.0267,0.0272,0.0272,0.0266,0.0283,0.0241,0.0269,0.0195,0.0171,0.015,0.0103,0.0077,0.0058,0.0032,0.003,0.0028,0.002,-0.0003,-0.0006,0.0035,0.0035,0.0035,0.0001,0,0.03,0.0344,0.0332,0.0367,0.0388,0.0353,0.0364,0.0349,0.0336,0.0351,0.0295,0.0303,0.0208,0.0213,0.0164,0.0097,0.006,0.0071,-0.0004,-0.0006,-0.0019,-0.0006,-0.001,-0.0042,0.0,-0.0,-0.0,0,0.0351,0.0374,0.0422,0.0441,0.0448,0.0459,0.0475,0.0484,0.048,0.0477,0.0464,0.0432,0.0392,0.0318,0.0204,0.0217,0.0119,0.0056,0.0053,0.0017,-0.0029,-0.0053,-0.0045,-0.0259,-0.0001,-0.0001,-0.0001,0,0.0403,0.0436,0.0477,0.0482,0.0498,0.051,0.052,0.0523,0.0569,0.0578,0.0633,0.0553,0.056,0.0427,0.0272,0.0244,0.0157,0.0103,-0.001,-0.0013,-0.0038,-0.0043,-0.0233,0.0019,0.0019,0.0019,0.0019,0,0.0458,0.0489,0.0504,0.0526,0.0583,0.0572,0.0641,0.0642,0.0702,0.08,0.0715,0.0792,0.0589,0.0514,0.0336,0.0173,0.0199,0.0009,-0.002,-0.002,-0.0023,-0.0228,-0.0337,0.0018,0.0018,0.0018,0.0018,0,0.0509,0.0517,0.0568,0.0596,0.0611,0.0656,0.0739,0.0808,0.0844,0.0983,0.101,0.0982,0.0885,0.0671,0.0472,0.0284,-0.0003,0.0043,0.0057,0.003,-0.0286,-0.0389,-0.057,-0.0665,-0.0082,-0.0082,-0.0083,0,0.0539,0.057,0.0625,0.0676,0.0693,0.076,0.0829,0.0877,0.0986,0.1121,0.1222,0.1172,0.1181,0.0868,0.0512,0.0204,-0.0006,-0.0015,-0.0085,-0.0296,-0.0433,-0.0504,-0.0577,-0.0099,-0.01,-0.0101,-0.0101,0,0.0598,0.0614,0.0661,0.0775,0.0851,0.0951,0.1065,0.1177,0.1282,0.141,0.158,0.1602,0.13,0.0988,0.0531,0.03,-0.0164,-0.0036,-0.026,-0.0462,-0.0546,-0.0652,-0.0086,-0.0106,-0.0106,-0.0105,-0.0105,-0.0105,0.0642,0.0698,0.0777,0.0885,0.0995,0.1165,0.1283,0.1438,0.164,0.1878,0.1858,0.1932,0.1436,0.0821,0.0459,-0.0212,-0.0206,-0.0421,-0.0527,-0.0578,-0.0685,-0.0127,-0.0179,-0.0179,-0.0179,-0.0178,-0.0178,0,0.0707,0.0781,0.0891,0.1041,0.1197,0.1233,0.1465,0.1621,0.1886,0.2068,0.221,0.2016,0.1413,0.0775,-0.012,-0.0607,-0.0785,-0.0879,-0.1003,-0.1052,-0.0562,-0.058,-0.0715,-0.0715,-0.0714,-0.0714,-0.0714,-0.0714,0.0749,0.0866,0.093,0.1193,0.1316,0.1549,0.1697,0.1937,0.2115,0.2361,0.2406,0.2407,0.1934,0.0307,-0.0781,-0.1044,-0.1385,-0.1481,-0.1632,-0.1332,-0.1298,-0.1266,-0.1312,-0.1597,-0.1598,-0.2074,-0.2079,-0.2083]}],[{"header":{"parameterUnit":"m.s-1","parameterCategory":2,"la1":30.2991,"la2":30.254,"lo1":-89.0895,"lo2":-89.0444,"dy":0.0017,"dx":0.0017,"nx":28,"ny":28,"refTime":"2025-06-15T21:00:00:Z","depth":"2","parameterNumber":2,"parameterNumberName":"U-component_of_CURRENTS"},"data":[0,0,0,0,0,0,0,0,0,0,0,0,0,0,0,0,0,0,0,0,0,0,0,0,0,0,0,0,0,0,0,0,0,0,0,0,0,0,0,0,0,0,0,0,0,0,0,0,0,0,0,0,0,0,0,0,0,0,0.2484,0.2485,0,0.2561,0.2562,0.2563,0.2589,0.2589,0.2589,0.2589,0.2608,0.2609,0.2609,0,0,0,0,0,0,0,0,0,0,0,0,0,0.2353,0.2355,0.2483,0.2485,0.2486,0.2561,0.2562,0.2563,0.2589,0.2589,0.2589,0.2588,0.2608,0.2609,0.2609,0,0,0,0,0,0,0,0,0,0,0,0,0,0.2415,0.2356,0.2483,0.251,0.2513,0.2561,0.2562,0.2563,0.2589,0.2589,0.2589,0.2588,0.2608,0.2609,0.2609,0.2617,0,0,0.2612,0.2612,0,0,0,0,0,0,0,0,0.2412,0.242,0.2505,0.2508,0.2512,0.2568,0.2523,0.2579,0.2589,0.2557,0.2589,0.2588,0.2591,0.2593,0.2605,0.2618,0.2619,0.2612,0.2613,0.2613,0.2613,0,0,0,0,0,0,0,0.2408,0.2417,0.2512,0.2506,0.2511,0.2517,0.2525,0.2534,0.2571,0.256,0.2563,0.2576,0.2592,0.2604,0.2606,0.2619,0.2612,0.2613,0.2614,0.2614,0.269,0.2691,0,0,0,0,0,0,0.2404,0.2413,0.2509,0.2514,0.2464,0.2519,0.2529,0.2548,0.2572,0.2577,0.2576,0.2577,0.2603,0.2605,0.2606,0.266,0.2613,0.2614,0.2614,0.2688,0.269,0.2692,0,0,0,0,0,0,0.2401,0.2412,0.2506,0.2467,0.248,0.2522,0.2543,0.2549,0.2568,0.2585,0.2588,0.2588,0.2603,0.2605,0.2612,0.2659,0.2614,0.2615,0.2687,0.2689,0.2691,0.274,0,0,0,0,0,0,0.2397,0.2411,0.2419,0.2467,0.2482,0.2534,0.2544,0.2551,0.2577,0.2579,0.2597,0.2598,0.2603,0.261,0.2613,0.266,0.2616,0.2685,0.2688,0.269,0.2737,0.2744,0.275,0,0,0,0,0,0.2392,0.2408,0.2419,0.2431,0.2493,0.2534,0.2542,0.257,0.2577,0.2585,0.2593,0.2598,0.2631,0.2611,0.2614,0.2663,0.2683,0.2687,0.269,0.2734,0.2742,0.275,0,0,0,0,0,0,0.2354,0.2414,0.2427,0.2459,0.2493,0.254,0.2558,0.2573,0.2588,0.2595,0.2599,0.2601,0.263,0.2633,0.2611,0.2694,0.2666,0.267,0.2698,0.2707,0.2713,0.2728,0.2617,0,0,0,0,0,0.235,0.238,0.2429,0.2455,0.2476,0.2516,0.2536,0.2559,0.2583,0.2591,0.2605,0.2626,0.2648,0.2662,0.2676,0.271,0.2744,0.2749,0.2756,0.2761,0.2776,0.2847,0.2862,0.2703,0.2703,0.2703,0,0,0.2343,0.238,0.2396,0.2449,0.2483,0.2524,0.2528,0.2569,0.2604,0.259,0.2633,0.2641,0.2658,0.2699,0.2716,0.2708,0.283,0.2765,0.277,0.2782,0.2852,0.2868,0.2882,0.2705,0.2705,0.2704,0,0,0.2352,0.238,0.241,0.2443,0.2499,0.253,0.2542,0.2595,0.2617,0.2653,0.266,0.2686,0.2721,0.2747,0.2763,0.2813,0.2855,0.2833,0.2889,0.2958,0.2972,0.2984,0.3073,0.3093,0.2846,0.2846,0.2847,0,0.2338,0.239,0.2422,0.2464,0.2498,0.2535,0.2578,0.261,0.2655,0.2685,0.2673,0.2752,0.2749,0.2819,0.2837,0.283,0.2887,0.2855,0.2968,0.2981,0.2993,0.308,0.3102,0.2849,0.2849,0.2849,0.2848,0,0.2377,0.2416,0.244,0.2509,0.2545,0.2588,0.2642,0.2683,0.2716,0.2751,0.2819,0.2823,0.288,0.2887,0.2874,0.2971,0.2991,0.296,0.2948,0.3012,0.31,0.3121,0.2853,0.2852,0.2851,0.2851,0,0,0.2356,0.2448,0.2458,0.2494,0.2575,0.2609,0.2681,0.2756,0.2839,0.2858,0.295,0.2966,0.2988,0.3007,0.3011,0.3061,0.3182,0.3056,0.3058,0.3145,0.3374,0.333,0.335,0.3181,0.3185,0.3187,0.341,0,0.2379,0.2454,0.25,0.2573,0.2619,0.268,0.2755,0.2826,0.2905,0.3002,0.3014,0.3098,0.3032,0.3088,0.312,0.3169,0.3239,0.3127,0.3297,0.3303,0.3257,0.3372,0.308,0.3248,0.3431,0.3434,0.3437,0,0.2406,0.2456,0.2525,0.2626,0.2655,0.271,0.2857,0.2929,0.3066,0.3134,0.3213,0.3245,0.3319,0.3255,0.3377,0.3318,0.3358,0.3382,0.339,0.3346,0.3299,0.3209,0.328,0.3473,0.347,0.3467,0.3465,0,0.2379,0.2475,0.2529,0.256,0.2679,0.2736,0.2815,0.2969,0.3062,0.3237,0.3335,0.3418,0.3484,0.3533,0.3555,0.3501,0.3694,0.3625,0.363,0.3628,0.341,0.3382,0.3732,0.3732,0.3731,0.3731,0.373,0,0.2385,0.2428,0.2524,0.2551,0.2654,0.2737,0.2879,0.2998,0.3171,0.3297,0.3398,0.3512,0.3558,0.3651,0.3652,0.372,0.378,0.368,0.3692,0.342,0.3393,0.3592,0.3573,0.3739,0.3737,0.3735,0.3734,0,0.2348,0.2406,0.2469,0.2588,0.2642,0.2713,0.2898,0.3011,0.3191,0.3369,0.3428,0.3613,0.3745,0.3793,0.3904,0.3856,0.3918,0.3924,0.3615,0.3585,0.379,0.377,0.3981,0.3982,0.3982,0.3983,0.3983,0,0.2338,0.2363,0.2481,0.2541,0.2598,0.272,0.2826,0.3006,0.3124,0.3414,0.3485,0.3692,0.3782,0.3948,0.3914,0.3962,0.3994,0.3748,0.3568,0.383,0.3821,0.38,0.3781,0.3315,0.331,0.3306,0.3303,0,0.2305,0.2339,0.239,0.2529,0.2626,0.2735,0.2884,0.2962,0.3178,0.3311,0.35,0.3602,0.3769,0.3682,0.3769,0.374,0.3709,0.3666,0.4048,0.3287,0.3217,0.3202,0.3202,0.3265,0.3269,0.3271,0.3273,0.3275,0.2278,0.2301,0.2387,0.2508,0.2626,0.2735,0.2784,0.2899,0.3022,0.3152,0.3343,0.3382,0.3455,0.3407,0.335,0.3327,0.3555,0.3417,0.3423,0.3436,0.3309,0.3242,0.3274,0.3277,0.328,0.3283,0.3286,0,0.2246,0.2286,0.2382,0.25,0.2585,0.2692,0.2816,0.281,0.2846,0.294,0.3018,0.2821,0.2824,0.2908,0.2809,0.2855,0.2748,0.2769,0.2597,0.2641,0.2678,0.2502,0.2259,0.2255,0.2251,0.2248,0,0,0.2228,0.2276,0.2314,0.2423,0.2518,0.258,0.2613,0.2563,0.2589,0.2501,0.2455,0.2646,0.2815,0.2457,0.2464,0.2349,0.2453,0.2264,0.3101,0.2941,0.2972,0.3087,0.2873,0,0,0,0,0]},{"header":{"parameterUnit":"m.s-1","parameterCategory":2,"la1":30.2991,"la2":30.254,"lo1":-89.0895,"lo2":-89.0444,"dy":0.0017,"dx":0.0017,"nx":28,"ny":28,"refTime":"2025-06-15T21:00:00:Z","depth":"2","parameterNumber":3,"parameterNumberName":"V-component_of_CURRENTS"},"data":[0,0,0,0,0,0,0,0,0,0,0,0,0,0,0,0,0,0,0,0,0,0,0,0,0,0,0,0,0,0,0,0,0,0,0,0,0,0,0,0,0,0,0,0,0,0,0,0,0,0,0,0,0,0,0,0,0,0,-0.0012,-0.0012,0,-0.0053,-0.0054,-0.0054,-0.0086,-0.0086,-0.0086,-0.0087,-0.0144,-0.0145,-0.0146,0,0,0,0,0,0,0,0,0,0,0,0,0,0.0006,0.0006,-0.0012,-0.0012,-0.0013,-0.0053,-0.0054,-0.0055,-0.0086,-0.0086,-0.0086,-0.0087,-0.0143,-0.0145,-0.0147,0,0,0,0,0,0,0,0,0,0,0,0,0,-0.0016,0.0006,-0.0012,-0.0032,-0.0034,-0.0053,-0.0054,-0.0055,-0.0086,-0.0086,-0.0087,-0.0087,-0.0143,-0.0145,-0.0147,-0.0154,0,0,-0.0153,-0.0154,0,0,0,0,0,0,0,0,-0.0015,-0.0017,-0.0029,-0.0031,-0.0033,-0.0064,-0.0069,-0.0088,-0.0086,-0.0068,-0.0087,-0.0087,-0.0117,-0.0122,-0.013,-0.0157,-0.0159,-0.0153,-0.0154,-0.0155,-0.0156,0,0,0,0,0,0,0,-0.0013,-0.0016,-0.003,-0.0029,-0.0032,-0.0051,-0.0054,-0.0073,-0.0092,-0.0069,-0.0071,-0.0074,-0.0119,-0.0128,-0.0132,-0.016,-0.0153,-0.0155,-0.0156,-0.0157,-0.0204,-0.0204,0,0,0,0,0,0,-0.0004,-0.0014,-0.0028,-0.0031,-0.0023,-0.0051,-0.0055,-0.0055,-0.0091,-0.0097,-0.0074,-0.0075,-0.0125,-0.013,-0.0134,-0.0139,-0.0155,-0.0157,-0.0158,-0.0204,-0.0204,-0.0204,0,0,0,0,0,0,-0.0003,-0.0004,-0.0027,-0.0023,-0.0026,-0.005,-0.0051,-0.0055,-0.0062,-0.0094,-0.01,-0.0075,-0.0125,-0.0131,-0.0151,-0.0142,-0.0158,-0.016,-0.0203,-0.0204,-0.0204,-0.0153,0,0,0,0,0,0,-0.0002,-0.0004,-0.0001,-0.0022,-0.0026,-0.0031,-0.005,-0.0056,-0.0063,-0.0065,-0.0098,-0.0103,-0.0126,-0.0147,-0.0153,-0.0145,-0.0162,-0.0203,-0.0204,-0.0204,-0.0155,-0.0151,-0.0149,0,0,0,0,0,-0.0001,0.0012,-0.0001,-0.0003,-0.0021,-0.003,-0.0034,-0.0054,-0.0062,-0.0062,-0.0088,-0.0102,-0.0151,-0.0149,-0.0155,-0.0148,-0.0203,-0.0203,-0.0204,-0.0156,-0.0152,-0.0149,0,0,0,0,0,0,0.0026,0.0009,-0.0005,0.0003,-0.0012,-0.0035,-0.0032,-0.0049,-0.0068,-0.0069,-0.0103,-0.011,-0.0126,-0.0145,-0.0141,-0.0163,-0.018,-0.0181,-0.0141,-0.0138,-0.0135,-0.0108,-0.0163,0,0,0,0,0,0.0031,0.0034,0.0013,0.0018,0.0015,-0.001,-0.0016,-0.0029,-0.0048,-0.0057,-0.008,-0.0106,-0.0131,-0.014,-0.0164,-0.0172,-0.0193,-0.0173,-0.017,-0.0167,-0.015,-0.0181,-0.0179,-0.0204,-0.0204,-0.0204,0,0,0.0043,0.0035,0.0035,0.0023,0.0011,0.0016,-0.0014,-0.0015,-0.0015,-0.006,-0.0064,-0.0097,-0.0132,-0.0145,-0.0153,-0.0158,-0.0173,-0.0167,-0.0164,-0.0149,-0.0181,-0.0178,-0.0176,-0.0204,-0.0204,-0.0204,0,0,0.0075,0.0061,0.0075,0.0066,0.0054,0.0038,0.0041,0.002,0.0008,-0.0003,-0.0039,-0.0063,-0.0094,-0.0119,-0.0136,-0.013,-0.0158,-0.014,-0.0097,-0.0127,-0.0125,-0.0124,-0.0152,-0.0153,-0.0134,-0.0134,-0.0134,0,0.0089,0.0103,0.0078,0.009,0.0091,0.0053,0.0072,0.0053,0.0027,0.0024,0.0005,-0.0038,-0.0079,-0.0091,-0.0098,-0.012,-0.0142,-0.0107,-0.0122,-0.0121,-0.012,-0.0149,-0.0151,-0.0132,-0.0132,-0.0132,-0.0132,0,0.0131,0.014,0.0151,0.0151,0.0147,0.0156,0.0131,0.0122,0.0102,0.0085,0.0071,0.002,-0.0001,-0.0027,-0.0064,-0.0075,-0.0094,-0.0117,-0.0127,-0.0114,-0.0146,-0.0149,-0.0128,-0.0129,-0.013,-0.013,0,0,0.0172,0.0179,0.0183,0.0194,0.0182,0.0185,0.0185,0.0177,0.0197,0.0154,0.0179,0.0107,0.0085,0.0064,0.0017,-0.0015,-0.0048,-0.006,-0.0063,-0.0079,-0.0112,-0.0147,-0.0154,-0.0074,-0.0074,-0.0074,-0.0138,0,0.0213,0.0255,0.0242,0.0275,0.0296,0.0262,0.0272,0.0257,0.0248,0.0261,0.0201,0.0207,0.0119,0.0124,0.0069,-0.0007,-0.0052,-0.0028,-0.0129,-0.0131,-0.0157,-0.0157,-0.0144,-0.0202,-0.0141,-0.0142,-0.0142,0,0.0261,0.0282,0.0328,0.0347,0.0354,0.0365,0.0384,0.0392,0.0386,0.0386,0.037,0.0333,0.0282,0.0214,0.0082,0.0103,-0.0003,-0.0072,-0.0077,-0.0124,-0.0172,-0.0206,-0.021,-0.0148,-0.0147,-0.0147,-0.0147,0,0.0311,0.0342,0.0382,0.0387,0.0402,0.0415,0.0427,0.0433,0.0478,0.0484,0.0536,0.0445,0.0445,0.0298,0.0128,0.011,-0.0013,-0.0055,-0.0188,-0.0192,-0.0206,-0.0211,-0.0154,-0.0154,-0.0154,-0.0154,-0.0153,0,0.0362,0.0392,0.041,0.0431,0.0491,0.0479,0.0551,0.0555,0.0611,0.0704,0.0617,0.0674,0.0467,0.0369,0.0181,-0.0007,0.0019,-0.0174,-0.0209,-0.019,-0.0193,-0.0164,-0.0165,-0.0156,-0.0155,-0.0155,-0.0155,0,0.0411,0.042,0.0469,0.0498,0.0518,0.0564,0.0651,0.072,0.0757,0.0886,0.0906,0.0854,0.0722,0.0497,0.027,0.0089,-0.0104,-0.0185,-0.0151,-0.0181,-0.0277,-0.0274,-0.0328,-0.033,-0.0331,-0.0332,-0.0333,0,0.044,0.047,0.0528,0.0582,0.0601,0.0673,0.0745,0.0792,0.0896,0.1007,0.1092,0.1007,0.0958,0.0601,0.025,-0.0082,-0.0114,-0.0268,-0.0311,-0.0266,-0.0294,-0.0289,-0.0284,-0.0314,-0.0315,-0.0316,-0.0316,0,0.0493,0.051,0.0556,0.068,0.0759,0.0863,0.0976,0.1079,0.1174,0.1269,0.138,0.1346,0.1008,0.0665,0.0203,-0.0028,-0.0218,-0.0292,-0.0243,-0.0273,-0.0259,-0.0285,-0.0279,-0.0322,-0.0322,-0.0321,-0.0321,-0.0321,0.0533,0.0582,0.0663,0.0778,0.0899,0.1069,0.1185,0.1307,0.1466,0.162,0.1563,0.1507,0.1114,0.0503,0.0121,-0.0275,-0.0267,-0.0396,-0.0392,-0.0387,-0.0374,-0.0364,-0.0444,-0.0444,-0.0445,-0.0445,-0.0445,0,0.0586,0.0655,0.0768,0.0922,0.1083,0.1139,0.1362,0.1488,0.1677,0.1726,0.1763,0.1382,0.0986,0.0563,-0.003,-0.0388,-0.0421,-0.0487,-0.0438,-0.0431,-0.0424,-0.0412,-0.0493,-0.0494,-0.0495,-0.0495,0,0,0.0616,0.0726,0.0786,0.1052,0.1189,0.1431,0.1574,0.1732,0.1823,0.1858,0.1781,0.1621,0.1108,0.0675,0.0179,-0.0134,-0.0197,-0.021,-0.0139,-0.0017,-0.0005,-0.0349,-0.0319,0,0,0,0,0]}],[{"header":{"parameterUnit":"m.s-1","parameterCategory":2,"la1":30.2991,"la2":30.254,"lo1":-89.0895,"lo2":-89.0444,"dy":0.0017,"dx":0.0017,"nx":28,"ny":28,"refTime":"2025-06-15T21:00:00:Z","depth":"4","parameterNumber":2,"parameterNumberName":"U-component_of_CURRENTS"},"data":[0,0,0,0,0,0,0,0,0,0,0,0,0,0,0,0,0,0,0,0,0,0,0,0,0,0,0,0,0,0,0,0,0,0,0,0,0,0,0,0,0,0,0,0,0,0,0,0,0,0,0,0,0,0,0,0,0,0,0.1366,0.1367,0,0.1347,0.1347,0.1346,0.1379,0.1381,0.1382,0.1384,0.1416,0.1416,0.1415,0,0,0,0,0,0,0,0,0,0,0,0,0,0.134,0.1341,0.1366,0.1367,0.1367,0.1347,0.1347,0.1346,0.1379,0.1381,0.1383,0.1385,0.1416,0.1416,0.1415,0,0,0,0,0,0,0,0,0,0,0,0,0,0.1335,0.1341,0.1366,0.1384,0.1386,0.1347,0.1347,0.1346,0.1379,0.1381,0.1383,0.1385,0.1417,0.1416,0.1415,0.1364,0,0,0.1412,0.1412,0,0,0,0,0,0,0,0,0.1336,0.1336,0.1381,0.1383,0.1385,0.1372,0.1349,0.1356,0.1378,0.1377,0.1384,0.1387,0.1407,0.1407,0.1392,0.1365,0.1366,0.1412,0.1412,0.1411,0.1411,0,0,0,0,0,0,0,0.1336,0.1336,0.1354,0.1382,0.1384,0.1362,0.1364,0.135,0.1377,0.1377,0.1381,0.1385,0.1408,0.1392,0.1393,0.1367,0.1412,0.1411,0.1411,0.1411,0.1444,0.1446,0,0,0,0,0,0,0.135,0.1337,0.1355,0.1354,0.137,0.1361,0.1364,0.137,0.1376,0.138,0.1383,0.1386,0.1392,0.1394,0.1394,0.1473,0.1411,0.1411,0.141,0.1443,0.1445,0.1446,0,0,0,0,0,0,0.1349,0.1351,0.1356,0.1348,0.1348,0.1361,0.1367,0.1369,0.1387,0.1381,0.1385,0.1404,0.1394,0.1395,0.1447,0.147,0.141,0.1409,0.1441,0.1443,0.1445,0.1543,0,0,0,0,0,0,0.1348,0.1351,0.1371,0.135,0.1349,0.1367,0.1365,0.1367,0.1386,0.1391,0.1399,0.1403,0.1396,0.1449,0.1447,0.1468,0.1409,0.1439,0.1442,0.1445,0.1538,0.1548,0.1557,0,0,0,0,0,0.1347,0.1359,0.1372,0.1375,0.1373,0.1369,0.1367,0.1379,0.1385,0.1401,0.1431,0.1404,0.1463,0.1451,0.1447,0.1468,0.1438,0.1441,0.1444,0.1534,0.1546,0.1556,0,0,0,0,0,0,0.1354,0.1363,0.1377,0.1392,0.14,0.1377,0.1388,0.1391,0.1418,0.1439,0.143,0.1436,0.1487,0.1463,0.1449,0.1485,0.1441,0.1444,0.151,0.1522,0.1531,0.1534,0.1408,0,0,0,0,0,0.1365,0.1381,0.1385,0.1399,0.1406,0.14,0.1404,0.1418,0.1431,0.1445,0.1456,0.1469,0.1485,0.1498,0.1505,0.1523,0.1531,0.1531,0.1541,0.1549,0.155,0.161,0.1626,0.1456,0.1456,0.1456,0,0,0.137,0.1378,0.1388,0.1403,0.1404,0.141,0.1408,0.1428,0.1451,0.1443,0.1491,0.1507,0.15,0.1538,0.1555,0.1529,0.1604,0.1553,0.156,0.1556,0.1615,0.1632,0.1647,0.1459,0.1458,0.1458,0,0,0.1372,0.1397,0.141,0.1416,0.144,0.1439,0.1454,0.1463,0.1495,0.1531,0.1546,0.1587,0.1589,0.1607,0.1607,0.1665,0.1657,0.1663,0.171,0.177,0.1784,0.1797,0.1842,0.1859,0.1663,0.1663,0.1663,0,0.1385,0.1396,0.1412,0.142,0.1429,0.1454,0.1466,0.149,0.1525,0.155,0.1565,0.1615,0.1613,0.1666,0.1696,0.1685,0.1723,0.167,0.1784,0.1797,0.1809,0.1852,0.1868,0.1668,0.1668,0.1667,0.1667,0,0.1378,0.1403,0.1408,0.143,0.1445,0.1461,0.1497,0.154,0.1574,0.1586,0.1667,0.1701,0.173,0.1736,0.1732,0.1815,0.1818,0.1797,0.176,0.1832,0.1872,0.1888,0.1676,0.1674,0.1672,0.1671,0,0,0.1362,0.1401,0.1405,0.1418,0.1457,0.1458,0.1521,0.1562,0.1593,0.1663,0.1727,0.1769,0.1805,0.1811,0.1839,0.1889,0.2005,0.1889,0.189,0.1941,0.2152,0.2009,0.2012,0.2026,0.2029,0.2031,0.2153,0,0.1358,0.1376,0.1401,0.142,0.1429,0.1478,0.1507,0.1557,0.1617,0.1692,0.1772,0.1844,0.1831,0.1891,0.1939,0.1998,0.205,0.1974,0.2067,0.2069,0.1939,0.2026,0.2041,0.2164,0.2168,0.217,0.2172,0,0.1335,0.1355,0.138,0.1408,0.1415,0.1438,0.1501,0.155,0.1657,0.1717,0.1827,0.1892,0.2018,0.2003,0.2134,0.2101,0.2133,0.2163,0.2168,0.2006,0.1954,0.2071,0.22,0.2198,0.2196,0.2194,0.2192,0,0.1288,0.1332,0.1355,0.1364,0.1403,0.1441,0.1486,0.1559,0.162,0.1798,0.1887,0.1994,0.2137,0.2181,0.2255,0.2219,0.2394,0.2338,0.2235,0.2226,0.2275,0.2259,0.2422,0.2422,0.2421,0.2421,0.2421,0,0.1247,0.1265,0.1344,0.1345,0.136,0.1425,0.1478,0.1541,0.1683,0.1763,0.1935,0.2034,0.2201,0.2314,0.2312,0.2334,0.2442,0.2259,0.2252,0.2313,0.23,0.2287,0.227,0.2426,0.2425,0.2424,0.2423,0,0.118,0.1232,0.1252,0.1316,0.1336,0.1364,0.1478,0.1509,0.1694,0.1847,0.1938,0.214,0.2278,0.2397,0.2504,0.2428,0.2438,0.2416,0.2503,0.2497,0.221,0.2196,0.2289,0.2285,0.2282,0.2279,0.2277,0,0.1147,0.1155,0.1218,0.1211,0.1249,0.1318,0.1335,0.1497,0.1568,0.1857,0.1919,0.2163,0.2275,0.2345,0.2423,0.2452,0.2414,0.2418,0.2271,0.2214,0.22,0.2191,0.2183,0.2271,0.227,0.227,0.2269,0,0.1077,0.1113,0.1129,0.1125,0.1149,0.1152,0.1242,0.131,0.1528,0.1723,0.1889,0.2001,0.2174,0.224,0.2341,0.2317,0.2404,0.2382,0.2386,0.2247,0.2194,0.2181,0.2176,0.2257,0.2259,0.226,0.226,0,0.1025,0.1017,0.1038,0.1024,0.103,0.0996,0.1062,0.1177,0.1292,0.1663,0.1683,0.1943,0.214,0.2169,0.2203,0.224,0.2169,0.2077,0.2096,0.211,0.199,0.1892,0.1874,0,0,0,0,0,0.0962,0.0936,0.0916,0.0868,0.0864,0.0868,0.0978,0.1071,0.1344,0.1419,0.157,0.1709,0.1851,0.1932,0.1929,0.206,0.2141,0.2041,0.2035,0.2193,0.2206,0.2079,0,0,0,0,0,0,0.0904,0.0899,0.089,0.0761,0.0702,0.0671,0.0755,0.0913,0.0984,0.1281,0.136,0.1572,0.1711,0.1839,0.1883,0.1913,0.1867,0.2182,0.2177,0.2185,0.2197,0.2208,0.2082,0,0,0,0,0]},{"header":{"parameterUnit":"m.s-1","parameterCategory":2,"la1":30.2991,"la2":30.254,"lo1":-89.0895,"lo2":-89.0444,"dy":0.0017,"dx":0.0017,"nx":28,"ny":28,"refTime":"2025-06-15T21:00:00:Z","depth":"4","parameterNumber":3,"parameterNumberName":"V-component_of_CURRENTS"},"data":[0,0,0,0,0,0,0,0,0,0,0,0,0,0,0,0,0,0,0,0,0,0,0,0,0,0,0,0,0,0,0,0,0,0,0,0,0,0,0,0,0,0,0,0,0,0,0,0,0,0,0,0,0,0,0,0,0,0,-0.0047,-0.0047,0,-0.0074,-0.0074,-0.0074,-0.0096,-0.0096,-0.0096,-0.0096,-0.0148,-0.0149,-0.015,0,0,0,0,0,0,0,0,0,0,0,0,0,-0.0031,-0.0031,-0.0047,-0.0047,-0.0047,-0.0074,-0.0074,-0.0074,-0.0096,-0.0096,-0.0096,-0.0096,-0.0147,-0.0149,-0.015,0,0,0,0,0,0,0,0,0,0,0,0,0,-0.0046,-0.0031,-0.0047,-0.0061,-0.0063,-0.0074,-0.0074,-0.0074,-0.0096,-0.0096,-0.0096,-0.0097,-0.0147,-0.0149,-0.015,-0.0155,0,0,-0.0156,-0.0156,0,0,0,0,0,0,0,0,-0.0045,-0.0046,-0.0059,-0.006,-0.0062,-0.0082,-0.0087,-0.0102,-0.0096,-0.0083,-0.0096,-0.0097,-0.0128,-0.0131,-0.0135,-0.0157,-0.0159,-0.0156,-0.0157,-0.0158,-0.0158,0,0,0,0,0,0,0,-0.0044,-0.0046,-0.0058,-0.0059,-0.0061,-0.0072,-0.0075,-0.009,-0.0104,-0.0084,-0.0086,-0.0089,-0.0129,-0.0133,-0.0136,-0.016,-0.0156,-0.0157,-0.0158,-0.0159,-0.0219,-0.0219,0,0,0,0,0,0,-0.0039,-0.0044,-0.0057,-0.0058,-0.0054,-0.0072,-0.0075,-0.0075,-0.0103,-0.0108,-0.0088,-0.009,-0.013,-0.0134,-0.0138,-0.015,-0.0158,-0.0159,-0.016,-0.0218,-0.0219,-0.022,0,0,0,0,0,0,-0.0039,-0.004,-0.0056,-0.0052,-0.0055,-0.0072,-0.0072,-0.0075,-0.0081,-0.0106,-0.0111,-0.0091,-0.013,-0.0136,-0.0153,-0.0153,-0.016,-0.0162,-0.0218,-0.0219,-0.0219,-0.0172,0,0,0,0,0,0,-0.0038,-0.004,-0.0038,-0.0052,-0.0055,-0.0059,-0.0072,-0.0076,-0.0082,-0.0084,-0.011,-0.0115,-0.0131,-0.0151,-0.0155,-0.0155,-0.0163,-0.0217,-0.0218,-0.0219,-0.0173,-0.0171,-0.0169,0,0,0,0,0,-0.0037,-0.0029,-0.0038,-0.004,-0.0053,-0.0058,-0.0061,-0.0074,-0.0082,-0.0081,-0.0101,-0.0114,-0.0161,-0.0152,-0.0157,-0.0158,-0.0217,-0.0218,-0.0219,-0.0173,-0.0171,-0.0169,0,0,0,0,0,0,-0.0019,-0.0031,-0.0041,-0.0037,-0.0047,-0.0062,-0.0061,-0.0072,-0.0087,-0.0089,-0.0114,-0.0121,-0.0138,-0.0158,-0.0147,-0.0181,-0.0194,-0.0196,-0.0157,-0.0155,-0.0154,-0.0136,-0.0164,0,0,0,0,0,-0.0015,-0.0015,-0.0029,-0.0027,-0.0029,-0.0046,-0.005,-0.006,-0.0074,-0.0081,-0.0099,-0.0124,-0.0147,-0.0158,-0.0179,-0.0192,-0.0221,-0.02,-0.0199,-0.0197,-0.0188,-0.0237,-0.0238,-0.0224,-0.0224,-0.0224,0,0,-0.0009,-0.0015,-0.0015,-0.0023,-0.0031,-0.0028,-0.0049,-0.0051,-0.0051,-0.0084,-0.0089,-0.0116,-0.015,-0.0166,-0.0176,-0.0181,-0.0218,-0.0198,-0.0196,-0.0189,-0.0238,-0.0239,-0.0241,-0.0224,-0.0224,-0.0224,0,0,0.0011,0.0002,0.001,0.0005,-0.0005,-0.0014,-0.0014,-0.0028,-0.0037,-0.0047,-0.0075,-0.01,-0.0129,-0.0153,-0.017,-0.0174,-0.0207,-0.0186,-0.016,-0.0207,-0.0208,-0.0209,-0.0249,-0.0255,-0.0185,-0.0185,-0.0185,0,0.0019,0.0029,0.0011,0.002,0.0024,-0.0005,0.001,-0.0004,-0.0024,-0.0031,-0.0043,-0.0093,-0.0122,-0.0145,-0.0148,-0.0167,-0.0199,-0.016,-0.0203,-0.0205,-0.0207,-0.0248,-0.0254,-0.0183,-0.0183,-0.0183,-0.0183,0,0.0045,0.0053,0.006,0.0062,0.0062,0.0069,0.0052,0.0043,0.0027,0.0009,-0.0016,-0.0056,-0.0086,-0.0105,-0.0126,-0.0156,-0.0175,-0.0194,-0.0202,-0.0205,-0.0249,-0.0256,-0.0179,-0.018,-0.0181,-0.0181,0,0,0.0066,0.0077,0.0079,0.0094,0.0088,0.0094,0.0091,0.0082,0.008,0.0047,0.0042,-0.0006,-0.0033,-0.0055,-0.009,-0.0129,-0.0176,-0.0163,-0.0166,-0.0191,-0.0277,-0.0272,-0.028,-0.0203,-0.0204,-0.0205,-0.0301,0,0.0093,0.0125,0.0122,0.0153,0.0171,0.0151,0.0157,0.014,0.0115,0.0098,0.0046,0.0025,-0.0013,-0.0026,-0.0073,-0.0146,-0.0193,-0.0147,-0.028,-0.0284,-0.0269,-0.0287,-0.0208,-0.0307,-0.0309,-0.031,-0.0311,0,0.012,0.014,0.0179,0.0208,0.0215,0.0228,0.0232,0.0232,0.019,0.0171,0.0132,0.0085,0.0031,-0.0005,-0.0128,-0.0098,-0.0184,-0.0245,-0.025,-0.0264,-0.0292,-0.0306,-0.0325,-0.0324,-0.0323,-0.0322,-0.0321,0,0.0147,0.0182,0.0218,0.0227,0.025,0.0265,0.0275,0.0252,0.0262,0.0214,0.021,0.0129,0.0103,-0.0015,-0.014,-0.0141,-0.028,-0.0302,-0.038,-0.0381,-0.0376,-0.0374,-0.0402,-0.0402,-0.0401,-0.0401,-0.0401,0,0.0178,0.0207,0.0236,0.0255,0.0306,0.0306,0.0344,0.0332,0.0325,0.0342,0.0254,0.0239,0.0098,0.0002,-0.0128,-0.0268,-0.0278,-0.0375,-0.0406,-0.0355,-0.0349,-0.0382,-0.0378,-0.0405,-0.0404,-0.0403,-0.0403,0,0.0199,0.0215,0.026,0.0299,0.032,0.0353,0.0406,0.0426,0.0411,0.0428,0.0419,0.0324,0.0196,0.0045,-0.014,-0.0236,-0.0385,-0.0439,-0.0365,-0.039,-0.046,-0.0453,-0.0535,-0.0536,-0.0536,-0.0537,-0.0537,0,0.0211,0.0234,0.0295,0.0332,0.0354,0.041,0.0451,0.0467,0.0493,0.0476,0.0486,0.0376,0.0293,0.005,-0.0131,-0.0373,-0.041,-0.0483,-0.048,-0.0453,-0.0474,-0.0466,-0.0459,-0.0538,-0.0538,-0.0538,-0.0538,0,0.0232,0.025,0.0288,0.0368,0.0423,0.0492,0.0551,0.0573,0.0593,0.059,0.0552,0.0417,0.0273,0.0065,-0.0116,-0.0298,-0.0431,-0.0489,-0.049,-0.0488,-0.0457,-0.0476,-0.0468,-0.054,-0.054,-0.054,-0.054,0,0.0242,0.0271,0.0324,0.0396,0.0478,0.0548,0.0574,0.0614,0.0641,0.0629,0.0613,0.0446,0.0362,0.0101,-0.0078,-0.0241,-0.0292,-0.0341,-0.035,-0.035,-0.027,-0.0202,-0.0233,0,0,0,0,0,0.025,0.0282,0.035,0.0428,0.0517,0.0568,0.0635,0.0651,0.0669,0.0666,0.0649,0.0514,0.0261,0.0132,-0.0029,-0.0123,-0.0345,-0.032,-0.0412,-0.055,-0.0548,-0.0486,0,0,0,0,0,0,0.0247,0.0306,0.0343,0.0453,0.0515,0.0612,0.0654,0.0664,0.066,0.0657,0.0524,0.0482,0.0225,0.0368,-0.0025,-0.008,-0.016,-0.0435,-0.0439,-0.0551,-0.0549,-0.0548,-0.0483,0,0,0,0,0]}]]